Home > Weather > Stassfurt > Past weeks

Flag for Germany Weather for the Past 2 Weeks in Stassfurt, Saxony-Anhalt, Germany

Now
45 °F

Clear.


Feels Like: 40 °F
Forecast: 50 / 71 °F
Wind: 9 mph from Southeast

Location: Leipzig-Schkeuditz

Current Time: May 6, 2016 at 6:15:30 AM

Latest Report: May 6, 2016 at 5:20 AM


Visibility: 10 mi

Pressure: 30.15 "Hg

Humidity: 93%

Dew Point: 43 °F

Location of StassfurtLocation

Historic Weather in Stassfurt — Graph

°F

Stassfurt Temperature Yesterday

Maximum temperature yesterday: 64 °F (at 4:20 PM)
Minimum temperature yesterday: 46 °F (at 3:20 AM)
Average temperature yesterday: 55 °F

High & Low Weather Summary for the Past Weeks

 TemperatureHumidityPressure
High66 °F (Apr 30, 2:20 PM)100% (Apr 25, 3:20 AM)30.39 "Hg (Apr 25, 3:20 AM)
Low28 °F (Apr 25, 2:20 AM)32% (Apr 30, 1:50 PM)29.47 "Hg (Apr 26, 3:20 AM)
Average47 °F68%30.00 "Hg
* Reported Apr 21 5:20 AM — May 6 5:20 AM, Stassfurt, Weather by CustomWeather, © 2016

Note: Actual official high and low records may vary slightly from our data, if they occured in-between our weather recording intervals... More about our weather records

Advertising

Stassfurt Weather History for the Previous 24 Hours

Scroll right to see more
 ConditionsComfort  
Time TempWeatherWind HumidityBarometerVisibility
5:20 AM
Fri, May 6
45 °FClear.9 mph93%30.15 "Hg10 mi
4:50 AM45 °FClear.8 mph93%30.15 "Hg10 mi
4:20 AM45 °FClear.8 mph93%30.15 "Hg10 mi
3:50 AM46 °FClear.8 mph93%30.15 "Hg10 mi
3:20 AM48 °FClear.8 mph87%30.18 "Hg10 mi
2:50 AM50 °FClear.9 mph82%30.18 "Hg10 mi
2:20 AM48 °FClear.10 mph87%30.18 "Hg10 mi
1:50 AM48 °FClear.10 mph87%30.18 "Hg10 mi
1:20 AM48 °FClear.10 mph87%30.18 "Hg10 mi
12:50 AM48 °FClear.9 mph87%30.18 "Hg10 mi
12:20 AM48 °FClear.9 mph87%30.18 "Hg10 mi
11:50 PM
Thu, May 5
48 °FClear.10 mph87%30.18 "Hg10 mi
11:20 PM50 °FClear.10 mph82%30.21 "Hg10 mi
10:50 PM54 °FClear.9 mph77%30.21 "Hg10 mi
10:20 PM54 °FClear.10 mph77%30.21 "Hg10 mi
9:50 PM55 °FClear.10 mph72%30.21 "Hg10 mi
9:20 PM55 °FSunny.9 mph72%30.21 "Hg10 mi
8:50 PM57 °FSunny.10 mph67%30.21 "Hg10 mi
8:20 PM59 °FSunny.8 mph63%30.21 "Hg10 mi
7:50 PM59 °FSunny.9 mph63%30.21 "Hg10 mi
7:20 PM61 °FSunny.12 mph59%30.21 "Hg10 mi
6:50 PM63 °FSunny.13 mph52%30.24 "Hg10 mi
6:20 PM63 °FSunny.14 mph52%30.24 "Hg10 mi
5:50 PM64 °FPassing clouds.16 mph49%30.24 "HgN/A
5:20 PM64 °FPassing clouds.15 mph49%30.27 "HgN/A
4:50 PM64 °FPassing clouds.12 mph52%30.27 "HgN/A
4:20 PM64 °FPassing clouds.14 mph49%30.27 "HgN/A
3:50 PM63 °FPassing clouds.14 mph52%30.27 "HgN/A
3:20 PM63 °FScattered clouds.13 mph52%30.30 "HgN/A
2:50 PM63 °FScattered clouds.10 mph52%30.30 "HgN/A
2:20 PM63 °FScattered clouds.10 mph52%30.30 "HgN/A
1:50 PM61 °FPassing clouds.12 mph48%30.33 "HgN/A
1:20 PM61 °FSunny.13 mph55%30.33 "Hg10 mi
12:50 PM59 °FPassing clouds.13 mph55%30.33 "HgN/A
12:20 PM59 °FPassing clouds.9 mph51%30.36 "HgN/A
11:50 AM57 °FPassing clouds.8 mph51%30.36 "HgN/A
11:20 AM57 °FPassing clouds.10 mph51%30.36 "HgN/A
10:50 AM55 °FScattered clouds.9 mph55%30.36 "HgN/A
10:20 AM55 °FPassing clouds.8 mph55%30.36 "HgN/A
9:50 AM54 °FPassing clouds.9 mph58%30.36 "HgN/A
9:20 AM54 °FSunny.9 mph58%30.39 "Hg10 mi
8:50 AM54 °FPassing clouds.8 mph58%30.39 "HgN/A
8:20 AM52 °FSunny.9 mph67%30.36 "Hg10 mi
7:50 AM50 °FSunny.6 mph71%30.36 "Hg10 mi
7:20 AM48 °FSunny.7 mph76%30.36 "Hg10 mi
6:50 AM48 °FSunny.5 mph76%30.36 "Hg10 mi
6:20 AM46 °FClear.5 mph82%30.36 "Hg10 mi
Weather by CustomWeather, © 2016

See weather overviewHow to use our weather pages